Погода в Волочанке

Погода в Волочанке : погода сейчас, прогноз погоды и архив. Всё, что Вы хотите узнать о погоде в Волочанке!

Поиск расширенной информации на нашем сайте:

Другие новости

Новости СМИ2

Главная страница сайта

Новости сайта

03.07.2017

Напоминаем, что на нашем специализированном сайте Метеоцентр.Азия вы можете получить высокодетализированные автоматические прогнозы погоды по пунктам России, СНГ и мира в авиационном формате (включающие направление и скорость ветра, видимость, явления погоды, количество и форму облачности, нижнюю и верхнюю границу облачности).


Погода в Волочанке - сегодня

Время (UTC), дата Ветер
(°,м/с) 
Видим.   Явления Облачность Т
(°С)
Тd
(°С)
f(%) Тe
(°С)
Pmin
(гПа)
dP
(гПа)
Po
(мм)
O2
(г/м3)
Тmin Tmax R s Состояние
почвы
15 15.10.17 090 (В) 10 км    3/0 верхняя 
[Ci fib]
-11.8 -16.2 70 -18  1013.5  -1.3  756  320           
18 15.10.17 100 (В) 10 км  слаб. снег  10/8 600 м средняя 
[Sc|Ac As]
-9.3 -13.8 70 -13  1012.3  -1.2  755  316           
00 16.10.17 090 (В) 10 км  {снег}  9/9 2000 м средняя 
[Ac As]
-7.1 -10.9 74 -10  1012  755  313  -11.8      равномерный
сухой снег
100% 
03 16.10.17 100 (В) 10 км    8/5 2000 м средняя, верхняя 
[Ac As|Cs]
-18.7 -12.5 100 -23  1012.4  0.3  755  328           
06 16.10.17 110 (В) 20000 м    5/3 2000 м средняя, верхняя 
[Ac As|Cs]
-5.1 -10.1 68 -7  1012.7  0.4  756  311           
09 16.10.17 090 (В) 10 км    6/5 2000 м средняя, верхняя 
[Ac As|Cs]
-7.6 -12.1 70 -10  1012.9  0.2  756  314           
12 16.10.17 090 (В) 10 км    8/4 2000 м средняя, верхняя 
[Ac As|Cs]
-11.2 -14.8 75 -13  1013.3  0.3  756  319    -5       
15 16.10.17 тихо ()   10 км    5/3 2000 м средняя, верхняя 
[Ac As|Cs]
-13.6 -16.3 80 -14  1014.1  0.7  757  322           
18 16.10.17 220 (ЮЗ) 10 км    4/0 верхняя 
[Cs]
-17.9 -19.8 85 -20  1014.7  0.5  757  328           
21 16.10.17 250 (З) 10 км    8/3 2000 м средняя, верхняя 
[Ac As|Cs]
-14.6 -15.9 90 -18  1015.6  758  324           
00 17.10.17 270 (З) 10 км  слаб. снег  10/10 2000 м 
[Ac As]
-11.5 -13.5 85 -13  1016.1  0.6  758  320  -17.9    0.0  равномерный
сухой снег
100% 
03 17.10.17 250 (З) 2000 м  снег  10/10 300 м 
[Ns]
-9.9 -11.2 90 -13  1017.4  1.3  759  318           
06 17.10.17 270 (З) 2000 м  снег  10/10 300 м 
[Ns]
-11.4 -13.4 85 -18  1018.9  1.5  760  321           
09 17.10.17 260 (З) 10 км  {снег}  10/10 600 м 
[Sc]
-13.7 -16.4 80 -17  1021.7  2.6  762  325           
12 17.10.17 270 (З) 10 км  слаб. снег  10/10 600 м 
[Sc]
-13.8 -16.5 80 -18  1021.8  0.1  762  325    -9.7     
15 17.10.17 200 (Ю) 10 км  {снег}  9/8 600 м средняя 
[Sc|Ac As]
-14.4 -16.4 85 -17  1022.5  0.7  763  326           
18 17.10.17 140 (ЮВ) 10 км  {снег}  6/5 2000 м средняя, верхняя 
[Ac As|Cs]
-16.5 -18.4 85 -19  1023  0.5  763  329           
21 17.10.17 тихо ()   10 км    8/6 600 м средняя 
[Sc|Ac As]
-20.2 -22.1 85 -20  1023.5  0.4  763  334           
00 18.10.17 110 (В) 10 км    8/3 600 м средняя, верхняя 
[Sc|Ac As|Cs]
-19.5 -21.4 85 -20  1023.8  0.3  764  333  -20.2    0.0  10  равномерный
сухой снег
100% 
03 18.10.17 070 (В) 10 км    3/0 верхняя 
[Ci fib]
-21.4 -23.2 85 -24  1024  0.2  764  336  -21.4         
06 18.10.17 090 (В) 10 км    1/0 верхняя 
[Ci fib]
-15.5 -17.4 85 -16  1023.4  0.5  763  328           
09 18.10.17 090 (В) 10 км    1/0 верхняя 
[Ci fib]
-14.5 -17.2 80 -18  1022.8  -0.6  763  326           
12 18.10.17 100 (В) 10 км    3/0 верхняя 
[Ci fib]
-17 -18.9 85 -22  1021.9  -0.9  762  329    -13.7       
15 18.10.17 100 (В) 10 км    3/0 верхняя 
[Ci fib]
-18.4 -20.3 85 -24  1020.3  -1.6  761  330           
18 18.10.17 080 (В) 10 км    3/0 верхняя 
[Ci fib]
-19.9 -21.8 85 -23  1019.4  -0.9  760  332           
Время (UTC), дата Ветер
(°,м/с) 
Видим.   Явления Облачность Т
(°С)
Тd
(°С)
f(%) Тe
(°С)
Pmin
(гПа)
dP
(гПа)
Po
(мм)
O2
(г/м3)
Тmin Tmax R s Состояние
почвы

Для получения пояснительной информации подведите курсор к названию столбца.

ПОГОДА в Волочанке - архив

Всё, что Вы хотите узнать о погоде в Волочанке - удобно и подробно!

Выберите нужную дату (начиная с 1 января 2015* года) и нажмите кнопку "Найти".
Будут отображены архивные сводки погоды по пункту Волочанка, начиная с указанной даты.


Отображать данные в формате CSV (для использования в таблицах Excel)


Внимание! Наш архив погоды предназначен исключительно для личного некоммерческого использования в познавательных целях. Если Вам необходимы официальные справки о состоянии погоды (для производственных, юридических, коммерческих и т.п. целей), обращайтесь в органы Росгидромета.

*Примечание: данная дата относится к архиву по метеостанциям СССР (Россия, СНГ, Балтия).
Архив по метеостанциям Зарубежной Европы и Азии (кроме Китая) хранится 10 дней, по другим регионам земного шара (Китай, Африка, Америка, Австралия, Океания) - 1 день.

Волочанка - район местоположения метеостанции


Название, широта, долгота, высота метеостанции:
Волочанка 71°ш. 94.6°д. 37 м над ур. моря [Российская Федерация]

Дополнительная информация

В oтличие oт бoльшинства пoгoдных сайтoв мы публикуем пoдрoбную метеoинфoрмацию в детальнoм прoфессиoнальнoм фoрмате.

Характеристики температуры и влажнoсти вoздуха измеряются на высoте 2 м в тени вдали oт зданий и деревьев.
Скoрoсть ветра измеряется на высoте 10 м (на урoвне рoста челoвека скoрoсть ветра ниже в 1.5-2 раза). Если метеoстанция нахoдится в гoрoде или в лесу, тo скoрoсть ветра занижена на 2-4 м/с пo сравнению с oткрытым местoм. Скoрoсть ветра над акватoриями крупных рек и oзёр, а также на вершинах хoлмoв на 2-5 м/с выше, чем в oбычных услoвиях.
Атмoсфернoе давление в разных тoчках местнoсти мoжет значительнo oтличаться oт давления на метеoстанции, в зависимoсти oт услoвий рельефа (при пoдъёме на 10 м давление пoнижается примернo на 1 мм рт.ст.).